Location: São Paulo
(23.5507°S, 46.6334°W)
Time: 06:32:49
(UTC-03:00)

Injun/Solrad 3 - All Passes

Search period start: 17 February 2026 00:00
Search period end: 27 February 2026 00:00
Orbit: 873 x 983 km, 66.8° (Epoch: 16 February)

Date Brightness Start Highest point End Pass type
(mag) Time Alt. Az. Time Alt. Az. Time Alt. Az.
17 Feb - 00:02:53 10° WNW 00:07:36 21° WSW 00:12:20 10° SSW visible
17 Feb - 09:14:30 10° SSW 09:20:33 89° ESE 09:26:24 10° NNE daylight
17 Feb - 22:25:32 10° NNW 22:31:57 79° ENE 22:38:24 10° SSE visible
18 Feb - 00:16:16 10° W 00:18:56 13° SW 00:21:37 10° SSW visible
18 Feb - 07:41:11 10° SSE 07:44:47 16° ESE 07:48:18 10° E daylight
18 Feb - 09:25:41 10° SW 09:31:30 54° WNW 09:37:09 10° N daylight
18 Feb - 20:54:08 10° NE 20:57:06 14° ENE 21:00:03 10° ESE night (unlit)
18 Feb - 22:36:36 10° NNW 22:42:58 65° WSW 22:49:21 10° SSE visible
19 Feb - 07:51:02 10° S 07:56:02 27° ESE 08:00:55 10° ENE daylight
19 Feb - 09:37:13 10° SW 09:42:22 31° WNW 09:47:25 10° NNW daylight
19 Feb - 21:02:56 10° NNE 21:07:54 24° ENE 21:12:52 10° SE night (unlit)
19 Feb - 22:48:06 10° NW 22:54:03 40° WSW 23:00:02 10° S visible
20 Feb - 08:01:28 10° S 08:07:12 44° ESE 08:12:45 10° NE daylight
20 Feb - 09:49:23 10° WSW 09:53:11 18° WNW 09:56:56 10° NW daylight
20 Feb - 21:12:51 10° N 21:18:45 40° ENE 21:24:41 10° SE night (unlit)
20 Feb - 23:00:08 10° WNW 23:05:15 25° WSW 23:10:23 10° S visible
21 Feb - 08:12:15 10° SSW 08:18:16 75° ESE 08:24:05 10° NNE daylight
21 Feb - 21:23:20 10° NNW 21:29:41 67° ENE 21:36:03 10° SSE visible
21 Feb - 23:13:00 10° W 23:16:32 15° WSW 23:20:05 10° SSW visible
22 Feb - 06:39:32 10° SSE 06:42:21 13° SE 06:45:09 10° E daylight
22 Feb - 08:23:18 10° SSW 08:29:14 64° WNW 08:34:59 10° N daylight
22 Feb - 19:53:22 10° ENE 19:54:53 11° ENE 19:56:23 10° E night (unlit)
22 Feb - 21:34:15 10° NNW 21:40:40 76° WSW 21:47:07 10° SSE visible
23 Feb - 06:49:03 10° S 06:53:40 23° ESE 06:58:11 10° ENE daylight
23 Feb - 08:34:42 10° SW 08:40:07 37° WNW 08:45:25 10° N daylight
23 Feb - 20:01:12 10° NNE 20:05:40 20° ENE 20:10:09 10° ESE night (unlit)
23 Feb - 21:45:36 10° NW 21:51:44 46° WSW 21:57:53 10° S visible
24 Feb - 06:59:20 10° S 07:04:51 37° ESE 07:10:13 10° NE daylight
24 Feb - 08:46:36 10° WSW 08:50:57 21° WNW 08:55:13 10° NNW daylight
24 Feb - 20:10:51 10° N 20:16:31 34° ENE 20:22:11 10° SE visible
24 Feb - 21:57:27 10° WNW 22:02:53 29° WSW 22:08:21 10° S visible
25 Feb - 07:10:00 10° SSW 07:15:57 63° ESE 07:21:43 10° NNE daylight
25 Feb - 08:59:54 10° W 09:01:43 11° WNW 09:03:32 10° WNW daylight
25 Feb - 20:21:10 10° N 20:27:25 56° ENE 20:33:41 10° SSE visible
25 Feb - 22:09:58 10° W 22:14:09 18° WSW 22:18:20 10° SSW visible
26 Feb - 05:38:19 10° SE 05:39:56 11° SE 05:41:33 10° ESE visible
26 Feb - 07:20:57 10° SSW 07:26:56 77° WNW 07:32:45 10° NNE daylight
26 Feb - 20:31:57 10° NNW 20:38:23 88° WSW 20:44:50 10° SSE visible
26 Feb - 22:24:35 10° WSW 22:25:31 10° SW 22:26:27 10° SW visible
